DECAYED

COSMOS 2251 DEB, 34401 (Decayed)

Orbit data source: Space-Track

COSMOS 2251 DEB, 34401 was space debris in LEO originally from a launch on Wed, 16 Jun 1993 UTC launched from the Plesetsk Missile And Space Complex (PKMTR). The debris from Iridium 33, an American commercial communications satellite, has been tracked extensively since its accidental collision with the defunct Russian satellite Cosmos 2251 in 2009. This event, occurring at high speed in low Earth orbit (LEO), generated thousands of pieces of space debris, significantly increasing the risk of further collisions. The Iridium 33 debris cloud has impacted space traffic management and orbital debris mitigation strategies, making it a subject of ongoing study in space situational awareness.

Loading next visibility...
Identifier
34401, 1993-036QS
Orbit
Decayed
Country
Flag of CISCIS
Related business
Manufacturer
Unknown
Mission
Decayed spacecraft
Bus & Motor
Unknown
Mass
Unknown
Launch date (UTC)
1993-06-16 (33 years ago)
Launch vehicle
Unknown
Launch site
Plesetsk Missile And Space Complex (PKMTR)
Object type
Payload
Rocket body
Debris
Shape & HBR
Unknown shape, 0.1 m
Radar Cross Section
Small (<0.1 m²)

Expand to show TLE details & history
Last TLE update: 1 year ago

TLE from 1 year ago
0 COSMOS 2251 DEB
1 34401U 93036QS  25124.79362816  .05865645  83940-1  11607-1 0  9999
2 34401  73.9905 343.1378 0011418 204.9918 155.0772 16.05674934861012
Epoch: 2025-05-04T19:02Z
TLE epoch observation values (Epoch: 2025-05-04T19:02:49.473Z)
Latitude
-0.00005°
Longitude
-165.48478°
Altitude
268.42 km
Speed
7.742 km/s
True Right ascension
22h 52m 33s
True Declination
0° 00' 00"
Sunlit
Object was in daylight at epoch
Visualization orbit readout
Latitude
Unknown
Longitude
Unknown
Altitude
Unknown
Speed
Unknown
Apparent Right ascension
Unknown
Apparent Declination
Unknown
Sunlit
N/A
Visualization observer readout
Local Sidereal Time
18:58:13
Azimuth
Unknown
Elevation
Unknown
Doppler factor
Unknown
Orbital elements
Apogee altitude
263.754 km
Perigee altitude
248.604 km
Semi-major axis
6,634.316 km
Eccentricity
0.00114
Inclination
73.9905°
RAAN
343.1378°
Arg. of periapsis
204.9918°
True anomaly
155.13226°
Mean anomaly
155.0772°
Eccentric anomaly
155.10474°
Mean motion
4.01651 °/min
Orbital period
89.63 mins
BSTAR
0.011607
Loading maneuver chart data...
Computing Atmospheric mass density...

Documentation

Showing up to 5 results
|